FW7196 Weather Reports


time (UTC)temp
C
wind
direction
speed
KPH
gust
KPH
rain 1hr
cm
rain 24hr
cm
rain mn
cm
humidity
%
barometer
mb
20260504044537 0 128 3.2 6.4 0.00 0.00 0.00 81 1008.8
20260504043042 0 0 0.0 0.0 0.00 0.00 0.00 85 1008.8
20260504041537 0 0 0.0 0.0 0.00 0.00 0.00 85 1008.8
20260504040042 0 0 0.0 0.0 0.00 0.00 0.00 84 1008.7
20260504034537 0 0 0.0 0.0 0.00 0.00 0.00 83 1008.6
20260504033036 0 0 0.0 0.0 0.00 0.00 0.00 82 1008.6
20260504031553 0 0 0.0 0.0 0.00 0.00 0.00 81 1008.6
20260504030042 0 0 0.0 0.0 0.00 0.00 0.00 81 1008.6
20260504024537 0 0 0.0 0.0 0.00 0.00 0.00 79 1008.7
20260504023038 0 0 0.0 0.0 0.00 0.00 0.00 77 1008.7
20260504021539 1 0 0.0 0.0 0.00 0.00 0.00 77 1008.8
20260504020038 1 0 0.0 0.0 0.00 0.00 0.00 75 1008.7
20260504014541 2 0 0.0 0.0 0.00 0.00 0.00 75 1008.6
20260504013041 2 0 0.0 0.0 0.00 0.00 0.00 71 1008.5
20260504012721 2 152 0.0 0.0 0.00 0.00 0.00 70 1008.5
20260504012216 3 152 0.0 0.0 0.00 0.00 0.00 70 1008.4
20260504011708 3 152 0.0 0.0 0.00 0.00 0.00 69 1008.3
20260504011540 3 0 0.0 0.0 0.00 0.00 0.00 70 1008.3
20260504011204 3 152 0.0 0.0 0.00 0.00 0.00 68 1008.3
20260504010042 3 0 0.0 0.0 0.00 0.00 0.00 68 1008.2
20260504004539 3 0 0.0 0.0 0.00 0.00 0.00 66 1008.0
20260504003040 5 0 0.0 0.0 0.00 0.00 0.00 63 1007.9
20260504001548 6 0 0.0 0.0 0.00 0.00 0.00 55 1007.6
20260504000038 6 0 0.0 0.0 0.00 0.00 0.00 53 1007.6
20260503234600 7 0 0.0 0.0 0.00 0.00 0.00 53 1007.4
20260503233044 7 0 0.0 4.8 0.00 0.00 0.00 51 1007.4
20260503231537 7 82 0.0 3.2 0.00 0.00 0.00 50 1007.4
20260503230038 7 0 0.0 4.8 0.00 0.00 0.00 48 1007.4
20260503224536 8 0 1.6 6.4 0.00 0.00 0.00 47 1007.3
20260503223039 8 0 0.0 12.9 0.00 0.00 0.00 47 1007.3
20260503221539 8 339 1.6 17.7 0.00 0.00 0.00 46 1007.3
20260503220036 8 0 0.0 8.0 0.00 0.00 0.00 48 1007.1
20260503214540 8 7 3.2 8.0 0.00 0.00 0.00 48 1007.1
20260503213038 7 330 3.2 17.7 0.00 0.00 0.00 48 1007.1
20260503211539 7 0 1.6 12.9 0.00 0.00 0.00 49 1007.1
20260503210036 7 334 3.2 8.0 0.00 0.00 0.00 46 1007.0
20260503204536 7 301 1.6 14.5 0.00 0.00 0.00 46 1007.1
20260503203052 8 87 4.8 17.7 0.00 0.00 0.00 45 1007.0
20260503201537 8 340 3.2 19.3 0.00 0.00 0.00 44 1006.9
20260503200039 8 353 3.2 12.9 0.00 0.00 0.00 45 1006.7
20260503194540 8 306 6.4 17.7 0.00 0.00 0.00 41 1006.9
20260503193037 8 0 3.2 14.5 0.00 0.00 0.00 42 1006.9
20260503191538 8 150 6.4 20.9 0.00 0.00 0.00 41 1007.0
20260503190039 8 265 3.2 16.1 0.00 0.00 0.00 44 1007.0
20260503184539 8 313 3.2 17.7 0.00 0.00 0.00 43 1006.9
20260503183040 8 225 3.2 12.9 0.00 0.00 0.00 44 1007.0
20260503181539 8 324 3.2 14.5 0.00 0.00 0.00 44 1006.7
20260503180041 8 319 3.2 6.4 0.00 0.00 0.00 45 1006.6
20260503174537 8 315 4.8 19.3 0.00 0.00 0.00 42 1006.7
20260503174031 8 26 1.6 11.3 0.00 0.00 0.00 42 1006.6
20260503173522 9 247 1.6 11.3 0.00 0.00 0.00 44 1006.6
20260503173039 8 338 3.2 12.9 0.00 0.00 0.00 42 1006.5
20260503173020 9 338 1.6 11.3 0.00 0.00 0.00 42 1006.5
20260503171918 9 313 4.8 11.3 0.00 0.00 0.00 41 1006.7
20260503171545 8 313 4.8 12.9 0.00 0.00 0.00 41 1006.6
20260503170717 9 8 3.2 6.4 0.00 0.00 0.00 44 1006.6
20260503081537 2 0 0.0 0.0 0.00 0.56 0.00 92 1008.7
20260503071551 2 0 0.0 0.0 0.00 0.58 0.00 93 1009.0